Weather History for Lafayette, IN

Change the Weather History Date:

Friday, June 10, 2011

  Actual Average Record
Temperature  
Mean Temperature 79 °F 70 °F  
Max Temperature 90 °F 81 °F 95 °F (1968)
Min Temperature 67 °F 59 °F 42 °F (1988)
Degree Days  
Heating Degree Days 0 1  
Month to date heating degree days 0 14  
Since 1 June heating degree days 0 14  
Since 1 July heating degree days 5646 5664  
Cooling Degree Days 14 6  
Month to date cooling degree days 126 51  
Year to date cooling degree days 253 128  
Since 1 June cooling degree days 126 51  
Growing Degree Days 28 (Base 50)    
Moisture  
Dew Point 68 °F    
Average Humidity 69    
Maximum Humidity 93    
Minimum Humidity 44    
Precipitation  
Precipitation 0.49 in 0.13 in 1.93 in (1958)
Month to date precipitation 1.07 1.44  
Year to date precipitation 15.71 15.46  
Sea Level Pressure  
Sea Level Pressure 29.89 in    
Wind  
Wind Speed 8 mph (ENE)    
Max Wind Speed 26 mph    
Max Gust Speed 41 mph    
Visibility 8 miles    
Events Rain , Thunderstorm    
T = Trace of Precipitation, MM = Missing Value Source: NWS Daily Summary

Daily Weather History Graph

Daily Weather History Graph

Search for Another Location

Airport:

Trip Planner

Search our weather history database for the weather conditions in past years. The results will help you decide how hot, cold, wet, or windy it might be!

Date:

Astronomy

Jun. 10, 2011 Rise Set
Actual Time 6:17 AM EDT 9:17 PM EDT
Civil Twilight 5:44 AM EDT 9:50 PM EDT
Nautical Twilight 5:02 AM EDT 10:32 PM EDT
Astronomical Twilight 4:13 AM EDT 11:21 PM EDT
Moon 3:45 PM EDT (6/10) 2:20 AM EDT (6/10)
Length of Visible Light 16h 05m
Length of Day
15h 00m
Waxing Gibbous, 68% of the Moon is Illuminated
Jun 10
Waxing Gibbous
Jun 15
Full
Jun 23
Last Quarter
Jul 1
New
Jul 8
First Quarter

Hourly Weather History & Observations

Time (EDT) Temp. Heat Index Dew Point Humidity Pressure Visibility Wind Dir Wind Speed Gust Speed Precip Events Conditions
12:54 AM 66.9 °F - 63.0 °F 87% 29.94 in 10.0 mi East 5.8 mph - N/A   Clear
1:54 AM 66.9 °F - 64.0 °F 90% 29.93 in 10.0 mi NE 3.5 mph - N/A   Clear
2:54 AM 68.0 °F - 64.0 °F 87% 29.93 in 10.0 mi ENE 6.9 mph - N/A   Scattered Clouds
3:32 AM 68.0 °F - 64.4 °F 88% 29.93 in 10.0 mi East 4.6 mph - N/A Thunderstorm Scattered Clouds
3:54 AM 68.0 °F - 64.9 °F 90% 29.91 in 8.0 mi East 5.8 mph - 0.02 in Rain , Thunderstorm Light Rain
4:54 AM 69.1 °F - 66.0 °F 90% 29.88 in 9.0 mi ENE 4.6 mph - 0.00 in Thunderstorm Clear
5:29 AM 69.8 °F - 66.2 °F 88% 29.90 in 2.5 mi East 11.5 mph - 0.12 in Rain , Thunderstorm Heavy Thunderstorms and Rain
5:43 AM 69.8 °F - 64.4 °F 83% 29.89 in 1.2 mi Variable 5.8 mph 41.4 mph 0.39 in Rain , Thunderstorm Thunderstorms and Rain
5:47 AM 69.8 °F - 66.2 °F 88% 29.89 in 3.0 mi SSE 5.8 mph - 0.40 in Rain , Thunderstorm Light Thunderstorms and Rain
5:54 AM 69.1 °F - 66.0 °F 90% 29.88 in 9.0 mi ENE 3.5 mph - 0.40 in Rain , Thunderstorm Light Thunderstorms and Rain
6:35 AM 69.8 °F - 66.2 °F 88% 29.92 in 9.0 mi ENE 9.2 mph - 0.00 in   Mostly Cloudy
6:52 AM 69.8 °F - 66.2 °F 88% 29.92 in 8.0 mi ENE 9.2 mph - 0.00 in Thunderstorm Mostly Cloudy
6:54 AM 69.1 °F - 66.0 °F 90% 29.91 in 8.0 mi ENE 9.2 mph - 0.00 in Thunderstorm Mostly Cloudy
7:11 AM 69.8 °F - 66.2 °F 88% 29.93 in 6.0 mi East 11.5 mph - N/A   Scattered Clouds
7:54 AM 70.0 °F - 66.9 °F 90% 29.93 in 7.0 mi ESE 8.1 mph - N/A   Partly Cloudy
8:54 AM 71.1 °F - 66.0 °F 84% 29.92 in 8.0 mi SE 5.8 mph - N/A   Clear
9:54 AM 75.9 °F - 68.0 °F 76% 29.91 in 9.0 mi SSE 8.1 mph - N/A   Clear
10:54 AM 79.0 °F - 69.1 °F 72% 29.91 in 8.0 mi SSE 9.2 mph - N/A   Clear
11:54 AM 82.9 °F 87.5 °F 71.1 °F 67% 29.89 in 7.0 mi SSE 8.1 mph - N/A   Clear
12:54 PM 84.9 °F 90.7 °F 72.0 °F 65% 29.89 in 5.0 mi SW 8.1 mph - N/A   Haze
1:54 PM 87.1 °F 93.6 °F 72.0 °F 61% 29.88 in 5.0 mi West 10.4 mph - N/A   Haze
2:54 PM 89.1 °F 93.7 °F 69.1 °F 52% 29.86 in 7.0 mi WSW 11.5 mph 17.3 mph N/A   Clear
3:54 PM 89.1 °F 91.3 °F 66.0 °F 46% 29.83 in 10.0 mi West 13.8 mph 25.3 mph N/A   Scattered Clouds
4:54 PM 89.1 °F 91.0 °F 64.9 °F 45% 29.83 in 10.0 mi West 11.5 mph 23.0 mph N/A   Scattered Clouds
5:54 PM 87.1 °F 93.6 °F 72.0 °F 61% 29.84 in 10.0 mi NNW 10.4 mph - N/A   Clear
6:54 PM 86.0 °F 92.2 °F 72.0 °F 63% 29.82 in 10.0 mi NNW 6.9 mph - N/A   Clear
7:54 PM 82.9 °F 88.8 °F 73.0 °F 72% 29.82 in 8.0 mi North 6.9 mph - N/A   Clear
8:54 PM 80.1 °F 83.6 °F 71.1 °F 74% 29.84 in 7.0 mi North 6.9 mph - N/A   Clear
9:54 PM 78.1 °F - 70.0 °F 76% 29.87 in 8.0 mi North 8.1 mph - N/A   Scattered Clouds
10:54 PM 75.9 °F - 70.0 °F 82% 29.90 in 6.0 mi Calm Calm - N/A   Haze
11:54 PM 73.9 °F - 69.1 °F 85% 29.90 in 5.0 mi North 5.8 mph - 0.00 in   Haze